Location: Cedar Springs
(43.2230°N, 85.5510°W)
Time: 22:43:38
(UTC-04:00)

Cosmos 2278 Rocket - Visible Passes

Search period start: 22 May 2015 00:00
Search period end: 01 June 2015 00:00
Orbit: 841 x 846 km, 71.0° (Epoch: 22 May)

Date Brightness Start Highest point End Pass type
(mag) Time Alt. Az. Time Alt. Az. Time Alt. Az.
22 May 2.4 00:45:41 10° NNW 00:51:19 63° ENE 00:52:16 54° ESE visible
22 May 3.9 02:30:57 10° NW 02:34:06 19° W 02:34:06 19° W visible
22 May 4.5 22:49:21 10° NNE 22:51:21 12° NE 22:53:35 10° ENE visible
23 May 2.4 00:31:11 10° NNW 00:36:48 60° ENE 00:37:57 50° ESE visible
23 May 3.8 02:16:21 10° NW 02:19:47 20° W 02:19:47 20° W visible
23 May 4.5 22:35:01 10° NNE 22:36:47 12° NE 22:38:48 10° ENE visible
24 May 2.5 00:16:41 10° NNW 00:22:17 58° ENE 00:23:40 45° ESE visible
24 May 3.8 02:01:46 10° NW 02:05:30 21° W 02:05:30 21° W visible
24 May 4.5 22:20:42 10° NNE 22:22:13 11° NE 22:24:00 10° ENE visible
25 May 2.5 00:02:11 10° NNW 00:07:46 56° ENE 00:09:25 41° ESE visible
25 May 3.7 01:47:11 10° NW 01:51:15 22° W 01:51:15 22° W visible
25 May 4.5 22:06:27 10° NNE 22:07:40 11° NE 22:09:08 10° NE visible
25 May 2.6 23:47:41 10° NNW 23:53:15 54° ENE 23:55:12 37° ESE visible
26 May 3.7 01:32:36 10° NW 01:37:00 23° WSW 01:37:02 23° WSW visible
26 May 4.5 21:52:17 10° NNE 21:53:06 10° NE 21:54:10 10° NE visible
26 May 2.6 23:33:12 10° NNW 23:38:43 51° ENE 23:41:00 33° ESE visible
27 May 3.6 01:18:01 10° NW 01:22:31 24° WSW 01:22:50 24° WSW visible
27 May 2.7 23:18:42 10° NNW 23:24:12 49° ENE 23:26:50 29° ESE visible
28 May 3.6 01:03:26 10° NW 01:08:01 25° WSW 01:08:41 24° WSW visible
28 May 2.7 23:04:13 10° NNW 23:09:41 48° ENE 23:12:42 25° ESE visible
29 May 3.5 00:48:52 10° NW 00:53:32 26° WSW 00:54:33 24° WSW visible
29 May 2.8 22:49:43 10° NNW 22:55:09 46° ENE 22:58:36 21° ESE visible
30 May 3.5 00:34:18 10° NW 00:39:02 27° WSW 00:40:27 24° SW visible
30 May 2.8 22:35:14 10° NNW 22:40:38 44° ENE 22:44:32 18° ESE visible
31 May 3.5 00:19:44 10° NW 00:24:33 28° WSW 00:26:23 23° SW visible
31 May 2.9 22:20:45 10° NNW 22:26:06 42° ENE 22:30:30 15° SE visible
